Simultaneous Nadir Overpasses (SNOs) Predictions

Prediction of SNOs between AQUA and GOES-15 Satellite Orbit:

Table of predicted SNOs for the next 14.0 days since TLE Epoch: 5/2/2025
Index Date Time (AQUA) AQUA Lat,Lon GOES-15 Lat,Lon Distance(km) Time Diff (sec)
1 05/03/2025 22:14:52 -0.90, 65.82 0.03, 61.54 486.59 80
2 05/04/2025 10:34:13 -0.11, 61.14 -0.01, 61.56 47.24 80
3 05/06/2025 22:33:17 0.03, 61.43 0.01, 61.59 17.86 80
4 05/09/2025 10:32:27 0.01, 61.70 0.01, 61.63 7.26 80
5 05/11/2025 22:31:28 -0.09, 62.00 -0.02, 61.68 36.37 80
6 05/12/2025 10:50:48 -0.92, 57.33 0.04, 61.68 496.43 80
7 05/14/2025 10:30:36 0.13, 62.27 0.04, 61.73 61.28 80
8 05/14/2025 22:49:47 0.86, 57.64 -0.06, 61.75 468.35 80
